Tracking 28096 objects as of 29-Sep-2023
HD Live streaming from Space Station
objects crossing your sky now

COSMOS 841

Track COSMOS 841 now!
10-day predictions
COSMOS 841 is classified as:


NORAD ID: 9022
Int'l Code: 1976-069A
Perigee: 768.5 km
Apogee: 788.6 km
Inclination: 74.0 °
Period: 100.3 minutes
Semi major axis: 7149 km
RCS: 2.1872 m2 (large)
Launch date: July 15, 1976
Source: Commonwealth of Independent States (former USSR) (CIS)
Launch site: PLESETSK MISSILE AND SPACE COMPLEX (PKMTR)
Your satellite tracking list
Your tracking list is empty




NASA's NSSDC Master Catalog

Two Line Element Set (TLE):
1 09022U 76069A   23271.57935110  .00000290  00000-0  10866-3 0  9992
2 09022  74.0439 323.9400 0014083 289.3726  70.5904 14.36104244469841
Source of the keplerian elements: AFSPC